SVA1799 OEGN-OEJN

Flight info

Callsign SVA1799
Flight time 1h 18m
Altitude 36000
Route DCT LUBAL L677 ABKAR M999 LOVIL B544 BOSUT BOSUT2S
Aircraft A320/M-SDE3FGHIRWY/LB1

Departure

Time 2026-04-16 21:01
Airport Jizan Regional Airport / King Abdullah bin Abdulaziz Airport (OEGN)

Arrival

Time 2026-04-16 22:19
Airport King Abdulaziz International Airport (OEJN)
Time Latitude Longitude Altitude Speed Heading
2026-04-16 20:45 16.89893 42.58371 27 ft 0 kts 240°
2026-04-16 20:55 16.89899 42.58382 27 ft 2 kts 240°
2026-04-16 20:55 16.89908 42.58397 27 ft 2 kts 240°
2026-04-16 20:55 16.89916 42.58412 27 ft 2 kts 240°
2026-04-16 20:55 16.89925 42.58428 27 ft 3 kts 243°
2026-04-16 20:56 16.89930 42.58444 27 ft 1 kts 276°
2026-04-16 20:56 16.89932 42.58443 27 ft 1 kts 296°
2026-04-16 20:56 16.90009 42.58392 27 ft 17 kts 332°
2026-04-16 20:57 16.90110 42.58338 27 ft 16 kts 332°
2026-04-16 20:57 16.90204 42.58285 27 ft 15 kts 331°
2026-04-16 20:57 16.90287 42.58231 27 ft 14 kts 328°
2026-04-16 20:57 16.90387 42.58170 27 ft 17 kts 330°
2026-04-16 20:58 16.90494 42.58108 26 ft 18 kts 330°
2026-04-16 20:58 16.90614 42.58036 28 ft 25 kts 330°
2026-04-16 20:58 16.90773 42.57939 26 ft 28 kts 329°
2026-04-16 20:58 16.90946 42.57838 26 ft 29 kts 331°
2026-04-16 20:59 16.91056 42.57771 28 ft 13 kts 330°
2026-04-16 20:59 16.91140 42.57763 25 ft 12 kts
2026-04-16 20:59 16.91215 42.57781 25 ft 10 kts 17°
2026-04-16 20:59 16.91273 42.57820 25 ft 10 kts 52°
2026-04-16 21:00 16.91278 42.57879 28 ft 8 kts 117°
2026-04-16 21:00 16.91242 42.57907 26 ft 6 kts 150°
2026-04-16 21:00 16.91154 42.57959 27 ft 42 kts 150°
2026-04-16 21:00 16.90666 42.58251 28 ft 115 kts 150°
2026-04-16 21:01 16.89797 42.58769 31 ft 170 kts 148°
2026-04-16 21:01 16.88720 42.59398 558 ft 182 kts 150°
2026-04-16 21:01 16.87634 42.60036 1320 ft 177 kts 150°
2026-04-16 21:01 16.86527 42.60595 1926 ft 183 kts 163°
2026-04-16 21:02 16.85224 42.60975 2218 ft 207 kts 163°
2026-04-16 21:02 16.83761 42.61431 2582 ft 232 kts 163°
2026-04-16 21:02 16.82140 42.61941 3045 ft 254 kts 163°
2026-04-16 21:03 16.78686 42.63041 4627 ft 266 kts 163°
2026-04-16 21:03 16.76909 42.63643 5452 ft 270 kts 159°
2026-04-16 21:03 16.75207 42.64500 6352 ft 272 kts 153°
2026-04-16 21:03 16.73561 42.65494 7186 ft 275 kts 148°
2026-04-16 21:04 16.71986 42.66641 8027 ft 278 kts 141°
2026-04-16 21:04 16.70552 42.68003 8873 ft 280 kts 133°
2026-04-16 21:04 16.69328 42.69596 9726 ft 283 kts 123°
2026-04-16 21:04 16.68371 42.71418 10283 ft 296 kts 114°
2026-04-16 21:05 16.67687 42.73530 10521 ft 320 kts 104°
2026-04-16 21:05 16.67384 42.75914 10711 ft 344 kts 93°
2026-04-16 21:05 16.67552 42.78473 11046 ft 361 kts 82°
2026-04-16 21:05 16.68249 42.80977 11606 ft 370 kts 66°
2026-04-16 21:06 16.69688 42.83223 12216 ft 378 kts 48°
2026-04-16 21:06 16.71705 42.85009 12836 ft 384 kts 33°
2026-04-16 21:06 16.74120 42.86236 13491 ft 389 kts 18°
2026-04-16 21:06 16.76793 42.86693 14081 ft 393 kts 359°
2026-04-16 21:07 16.79480 42.86220 14681 ft 394 kts 339°
2026-04-16 21:07 16.81890 42.84878 15299 ft 394 kts 321°
2026-04-16 21:07 16.83762 42.82802 15925 ft 394 kts 304°
2026-04-16 21:07 16.85339 42.80456 16573 ft 396 kts 304°
2026-04-16 21:08 16.86940 42.78111 17225 ft 398 kts 304°
2026-04-16 21:08 16.88563 42.75764 17872 ft 400 kts 305°
2026-04-16 21:08 16.90182 42.73432 18432 ft 402 kts 304°
2026-04-16 21:08 16.91826 42.71060 18960 ft 404 kts 304°
2026-04-16 21:09 16.93472 42.68675 19473 ft 406 kts 304°
2026-04-16 21:09 16.95122 42.66274 19987 ft 408 kts 304°
2026-04-16 21:09 16.96780 42.63853 20485 ft 410 kts 304°
2026-04-16 21:09 16.98443 42.61425 20976 ft 412 kts 304°
2026-04-16 21:10 17.00114 42.58984 21441 ft 414 kts 304°
2026-04-16 21:10 17.01798 42.56525 21891 ft 417 kts 304°
2026-04-16 21:10 17.03489 42.54058 22347 ft 419 kts 304°
2026-04-16 21:10 17.05187 42.51579 22774 ft 421 kts 304°
2026-04-16 21:11 17.06896 42.49079 23183 ft 423 kts 304°
2026-04-16 21:11 17.08610 42.46570 23556 ft 426 kts 304°
2026-04-16 21:11 17.10333 42.44046 23889 ft 427 kts 304°
2026-04-16 21:11 17.12067 42.41515 24221 ft 429 kts 304°
2026-04-16 21:12 17.13809 42.38975 24551 ft 431 kts 304°
2026-04-16 21:12 17.15555 42.36425 24887 ft 432 kts 304°
2026-04-16 21:12 17.17279 42.33896 25213 ft 433 kts 304°
2026-04-16 21:12 17.19028 42.31328 25535 ft 435 kts 304°
2026-04-16 21:13 17.20787 42.28750 25860 ft 436 kts 304°
2026-04-16 21:13 17.22549 42.26171 26176 ft 437 kts 304°
2026-04-16 21:13 17.24321 42.23574 26488 ft 439 kts 304°
2026-04-16 21:13 17.26146 42.21005 26784 ft 441 kts 308°
2026-04-16 21:14 17.28248 42.18664 27078 ft 444 kts 313°
2026-04-16 21:14 17.30438 42.16378 27362 ft 445 kts 313°
2026-04-16 21:14 17.32635 42.14087 27632 ft 446 kts 313°
2026-04-16 21:14 17.34828 42.11796 27898 ft 447 kts 312°
2026-04-16 21:15 17.37030 42.09490 28152 ft 448 kts 312°
2026-04-16 21:15 17.39237 42.07180 28380 ft 449 kts 312°
2026-04-16 21:15 17.41440 42.04872 28578 ft 449 kts 312°
2026-04-16 21:15 17.43619 42.02585 28846 ft 448 kts 312°
2026-04-16 21:16 17.45844 42.00251 29161 ft 447 kts 312°
2026-04-16 21:16 17.48009 41.97979 29463 ft 445 kts 312°
2026-04-16 21:16 17.50196 41.95683 29776 ft 444 kts 312°
2026-04-16 21:16 17.52369 41.93404 30067 ft 442 kts 311°
2026-04-16 21:17 17.54543 41.91124 30334 ft 441 kts 311°
2026-04-16 21:17 17.56708 41.88849 30599 ft 440 kts 311°
2026-04-16 21:17 17.58860 41.86587 30883 ft 438 kts 311°
2026-04-16 21:17 17.61014 41.84325 31148 ft 437 kts 311°
2026-04-16 21:18 17.63154 41.82078 31422 ft 436 kts 311°
2026-04-16 21:18 17.65295 41.79826 31706 ft 435 kts 311°
2026-04-16 21:18 17.67429 41.77581 31993 ft 433 kts 311°
2026-04-16 21:18 17.69549 41.75348 32283 ft 432 kts 311°
2026-04-16 21:19 17.71641 41.73144 32581 ft 431 kts 311°
2026-04-16 21:19 17.73755 41.70915 32866 ft 430 kts 311°
2026-04-16 21:19 17.75855 41.68698 33155 ft 429 kts 311°
2026-04-16 21:19 17.77956 41.66479 33457 ft 428 kts 311°
2026-04-16 21:20 17.80046 41.64274 33763 ft 426 kts 311°
2026-04-16 21:20 17.82164 41.62039 34038 ft 425 kts 311°
2026-04-16 21:20 17.84218 41.59868 34316 ft 423 kts 311°
2026-04-16 21:20 17.86285 41.57684 34590 ft 422 kts 311°
2026-04-16 21:21 17.88350 41.55501 34877 ft 420 kts 311°
2026-04-16 21:21 17.90405 41.53328 35155 ft 418 kts 311°
2026-04-16 21:21 17.92444 41.51172 35433 ft 416 kts 311°
2026-04-16 21:21 17.94482 41.49019 35699 ft 414 kts 311°
2026-04-16 21:22 17.96513 41.46871 35825 ft 414 kts 311°
2026-04-16 21:22 18.00558 41.42590 35850 ft 412 kts 311°
2026-04-16 21:23 18.04593 41.38316 35847 ft 412 kts 311°
2026-04-16 21:23 18.08623 41.34041 35841 ft 412 kts 311°
2026-04-16 21:24 18.12657 41.29759 35833 ft 412 kts 311°
2026-04-16 21:24 18.16657 41.25510 35828 ft 412 kts 310°
2026-04-16 21:25 18.20682 41.21226 35830 ft 412 kts 310°
2026-04-16 21:25 18.24713 41.16943 35825 ft 412 kts 311°
2026-04-16 21:26 18.28749 41.12649 35823 ft 412 kts 311°
2026-04-16 21:26 18.32750 41.08387 35815 ft 412 kts 310°
2026-04-16 21:27 18.36779 41.04098 35811 ft 412 kts 311°
2026-04-16 21:27 18.40806 40.99809 35804 ft 412 kts 310°
2026-04-16 21:28 18.44833 40.95509 35806 ft 412 kts 310°
2026-04-16 21:28 18.48853 40.91217 35806 ft 412 kts 311°
2026-04-16 21:29 18.52872 40.86928 35804 ft 411 kts 310°
2026-04-16 21:29 18.56857 40.82662 35802 ft 411 kts 310°
2026-04-16 21:30 18.60872 40.78360 35800 ft 411 kts 310°
2026-04-16 21:30 18.64879 40.74067 35800 ft 411 kts 310°
2026-04-16 21:31 18.68887 40.69777 35801 ft 411 kts 310°
2026-04-16 21:31 18.72889 40.65483 35797 ft 410 kts 310°
2026-04-16 21:32 18.76865 40.61207 35798 ft 410 kts 310°
2026-04-16 21:32 18.80861 40.56913 35798 ft 410 kts 310°
2026-04-16 21:33 18.84861 40.52625 35795 ft 410 kts 310°
2026-04-16 21:33 18.88857 40.48338 35797 ft 410 kts 310°
2026-04-16 21:34 18.92846 40.44034 35792 ft 409 kts 310°
2026-04-16 21:34 18.96829 40.39740 35792 ft 409 kts 310°
2026-04-16 21:35 19.00814 40.35452 35795 ft 409 kts 310°
2026-04-16 21:35 19.04766 40.31190 35796 ft 409 kts 310°
2026-04-16 21:36 19.09010 40.27161 35792 ft 416 kts 322°
2026-04-16 21:36 19.14319 40.24565 35792 ft 424 kts 332°
2026-04-16 21:37 19.19776 40.22224 35790 ft 423 kts 331°
2026-04-16 21:37 19.25227 40.19871 35791 ft 423 kts 331°
2026-04-16 21:38 19.30687 40.17521 35796 ft 423 kts 331°
2026-04-16 21:38 19.36136 40.15181 35796 ft 423 kts 331°
2026-04-16 21:39 19.41579 40.12831 35789 ft 422 kts 331°
2026-04-16 21:39 19.47016 40.10476 35796 ft 422 kts 331°
2026-04-16 21:40 19.52431 40.08137 35795 ft 422 kts 331°
2026-04-16 21:40 19.57863 40.05794 35794 ft 422 kts 331°
2026-04-16 21:41 19.63300 40.03449 35801 ft 422 kts 331°
2026-04-16 21:41 19.68735 40.01100 35796 ft 422 kts 331°
2026-04-16 21:42 19.74173 39.98741 35793 ft 422 kts 330°
2026-04-16 21:42 19.79600 39.96383 35796 ft 422 kts 330°
2026-04-16 21:43 19.85030 39.94031 35797 ft 422 kts 330°
2026-04-16 21:43 19.90471 39.91680 35796 ft 422 kts 330°
2026-04-16 21:44 19.95864 39.89343 35792 ft 421 kts 330°
2026-04-16 21:44 20.01292 39.86992 35793 ft 421 kts 330°
2026-04-16 21:45 20.06717 39.84631 35795 ft 421 kts 330°
2026-04-16 21:45 20.12151 39.82267 35794 ft 421 kts 330°
2026-04-16 21:46 20.17544 39.79920 35791 ft 421 kts 330°
2026-04-16 21:46 20.22970 39.77558 35795 ft 422 kts 330°
2026-04-16 21:47 20.28397 39.75194 35792 ft 422 kts 330°
2026-04-16 21:47 20.33824 39.72827 35793 ft 422 kts 330°
2026-04-16 21:48 20.39259 39.70454 35793 ft 422 kts 330°
2026-04-16 21:48 20.44686 39.68086 35798 ft 422 kts 330°
2026-04-16 21:49 20.50075 39.65727 35802 ft 422 kts 330°
2026-04-16 21:49 20.55498 39.63350 35796 ft 421 kts 330°
2026-04-16 21:50 20.60930 39.60971 35802 ft 421 kts 330°
2026-04-16 21:50 20.66354 39.58594 35552 ft 422 kts 330°
2026-04-16 21:50 20.69064 39.57405 34203 ft 423 kts 330°
2026-04-16 21:51 20.71809 39.56196 32338 ft 433 kts 330°
2026-04-16 21:51 20.74625 39.54950 30454 ft 442 kts 330°
2026-04-16 21:51 20.77493 39.53691 28479 ft 451 kts 333°
2026-04-16 21:51 20.80521 39.52737 27222 ft 450 kts 340°
2026-04-16 21:52 20.83476 39.51986 26914 ft 421 kts 340°
2026-04-16 21:52 20.86217 39.51267 26756 ft 393 kts 339°
2026-04-16 21:52 20.88810 39.50564 26245 ft 377 kts 339°
2026-04-16 21:52 20.91316 39.49868 25563 ft 369 kts 339°
2026-04-16 21:53 20.93751 39.49184 24838 ft 364 kts 339°
2026-04-16 21:53 20.96211 39.48495 24103 ft 359 kts 339°
2026-04-16 21:53 20.98579 39.47842 23604 ft 350 kts 340°
2026-04-16 21:53 21.00953 39.47195 23172 ft 353 kts 340°
2026-04-16 21:54 21.03315 39.46558 22562 ft 348 kts 340°
2026-04-16 21:54 21.05654 39.45932 22021 ft 346 kts 341°
2026-04-16 21:54 21.07982 39.45307 21471 ft 343 kts 341°
2026-04-16 21:54 21.10285 39.44686 20935 ft 341 kts 341°
2026-04-16 21:55 21.12581 39.44066 20397 ft 339 kts 341°
2026-04-16 21:55 21.14859 39.43452 19858 ft 336 kts 342°
2026-04-16 21:55 21.17124 39.42842 19332 ft 334 kts 342°
2026-04-16 21:55 21.19368 39.42231 18805 ft 332 kts 342°
2026-04-16 21:56 21.21597 39.41619 18279 ft 330 kts 342°
2026-04-16 21:56 21.23816 39.41008 17728 ft 328 kts 342°
2026-04-16 21:56 21.26015 39.40402 17188 ft 326 kts 342°
2026-04-16 21:56 21.28204 39.39802 16684 ft 324 kts 342°
2026-04-16 21:57 21.30376 39.39207 16161 ft 321 kts 342°
2026-04-16 21:57 21.32506 39.38623 15663 ft 319 kts 342°
2026-04-16 21:57 21.34646 39.38039 15155 ft 317 kts 342°
2026-04-16 21:57 21.36776 39.37460 14664 ft 315 kts 342°
2026-04-16 21:58 21.38894 39.36883 14147 ft 313 kts 342°
2026-04-16 21:58 21.40990 39.36312 13653 ft 310 kts 342°
2026-04-16 21:58 21.43084 39.35740 13116 ft 308 kts 342°
2026-04-16 21:58 21.45156 39.35172 12795 ft 308 kts 342°
2026-04-16 21:59 21.47231 39.34602 12484 ft 305 kts 342°
2026-04-16 21:59 21.49251 39.34052 12408 ft 293 kts 342°
2026-04-16 21:59 21.51186 39.33526 12306 ft 283 kts 342°
2026-04-16 21:59 21.53062 39.33016 12179 ft 274 kts 342°
2026-04-16 22:00 21.54847 39.32390 11909 ft 271 kts 336°
2026-04-16 22:00 21.56630 39.31690 11488 ft 275 kts 336°
2026-04-16 22:00 21.58435 39.30975 11088 ft 277 kts 336°
2026-04-16 22:00 21.60248 39.30256 10690 ft 280 kts 336°
2026-04-16 22:01 21.62061 39.29539 10289 ft 282 kts 336°
2026-04-16 22:01 21.63938 39.28797 9881 ft 285 kts 336°
2026-04-16 22:01 21.65782 39.28069 9449 ft 287 kts 337°
2026-04-16 22:01 21.67662 39.27332 9030 ft 288 kts 337°
2026-04-16 22:02 21.69546 39.26594 8614 ft 288 kts 336°
2026-04-16 22:02 21.71434 39.25851 8203 ft 289 kts 336°
2026-04-16 22:02 21.73328 39.25104 7752 ft 291 kts 336°
2026-04-16 22:02 21.75248 39.24344 7225 ft 296 kts 336°
2026-04-16 22:03 21.77201 39.23572 6689 ft 302 kts 336°
2026-04-16 22:03 21.79186 39.22788 6152 ft 306 kts 336°
2026-04-16 22:03 21.81200 39.21995 5597 ft 310 kts 336°
2026-04-16 22:03 21.83242 39.21192 5041 ft 314 kts 337°
2026-04-16 22:04 21.85303 39.20379 4494 ft 317 kts 337°
2026-04-16 22:04 21.87381 39.19558 3914 ft 319 kts 338°
2026-04-16 22:04 21.89469 39.18735 3347 ft 321 kts 338°
2026-04-16 22:04 21.91522 39.17926 3056 ft 313 kts 338°
2026-04-16 22:05 21.93516 39.17142 2985 ft 296 kts 338°
2026-04-16 22:05 21.95386 39.16405 2995 ft 277 kts 338°
2026-04-16 22:05 21.97123 39.15720 2993 ft 253 kts 337°
2026-04-16 22:05 21.98713 39.15093 3001 ft 239 kts 337°
2026-04-16 22:06 22.00268 39.14475 3005 ft 237 kts 337°
2026-04-16 22:06 22.03265 39.13286 3014 ft 225 kts 337°
2026-04-16 22:06 22.04727 39.12705 3009 ft 224 kts 337°
2026-04-16 22:07 22.05696 39.12319 3009 ft 224 kts 337°
2026-04-16 22:07 22.07534 39.11365 3009 ft 218 kts 312°
2026-04-16 22:07 22.08395 39.10119 3003 ft 200 kts 283°
2026-04-16 22:07 22.08665 39.08718 3003 ft 185 kts 259°
2026-04-16 22:08 22.08551 39.07810 3007 ft 178 kts 245°
2026-04-16 22:08 22.08132 39.06579 3008 ft 175 kts 241°
2026-04-16 22:08 22.07704 39.05352 3009 ft 175 kts 241°
2026-04-16 22:08 22.07028 39.03827 3003 ft 163 kts 220°
2026-04-16 22:09 22.06467 39.03312 3002 ft 158 kts 205°
2026-04-16 22:09 22.05429 39.02959 2997 ft 154 kts 181°
2026-04-16 22:09 22.04396 39.03241 3005 ft 155 kts 163°
2026-04-16 22:09 22.03366 39.03591 3003 ft 155 kts 165°
2026-04-16 22:10 22.02353 39.03958 3002 ft 156 kts 163°
2026-04-16 22:10 22.01326 39.04351 2999 ft 157 kts 163°
2026-04-16 22:10 22.00296 39.04753 3000 ft 158 kts 162°
2026-04-16 22:10 21.99261 39.05161 2999 ft 159 kts 162°
2026-04-16 22:11 21.98226 39.05570 3002 ft 158 kts 162°
2026-04-16 22:11 21.97194 39.05978 3001 ft 158 kts 162°
2026-04-16 22:11 21.96166 39.06386 3001 ft 157 kts 162°
2026-04-16 22:11 21.95140 39.06792 3002 ft 157 kts 162°
2026-04-16 22:12 21.94114 39.07198 3003 ft 157 kts 162°
2026-04-16 22:12 21.93087 39.07604 3003 ft 157 kts 162°
2026-04-16 22:12 21.92072 39.08006 3004 ft 158 kts 162°
2026-04-16 22:12 21.91045 39.08413 3001 ft 158 kts 162°
2026-04-16 22:13 21.90014 39.08821 3000 ft 157 kts 162°
2026-04-16 22:13 21.89033 39.09210 3027 ft 144 kts 162°
2026-04-16 22:13 21.88113 39.09574 3013 ft 138 kts 162°
2026-04-16 22:13 21.87216 39.09928 3005 ft 136 kts 162°
2026-04-16 22:14 21.86326 39.10280 3000 ft 136 kts 162°
2026-04-16 22:14 21.85441 39.10630 2968 ft 136 kts 162°
2026-04-16 22:14 21.84553 39.10981 2861 ft 136 kts 162°
2026-04-16 22:14 21.83667 39.11332 2720 ft 135 kts 162°
2026-04-16 22:15 21.82799 39.11675 2565 ft 133 kts 162°
2026-04-16 22:15 21.81954 39.12009 2399 ft 127 kts 162°
2026-04-16 22:15 21.81132 39.12333 2250 ft 125 kts 161°
2026-04-16 22:15 21.80315 39.12657 2091 ft 126 kts 161°
2026-04-16 22:16 21.79495 39.12980 1959 ft 125 kts 161°
2026-04-16 22:16 21.78678 39.13303 1788 ft 125 kts 161°
2026-04-16 22:16 21.77860 39.13626 1623 ft 125 kts 161°
2026-04-16 22:16 21.77042 39.13949 1460 ft 126 kts 160°
2026-04-16 22:17 21.76220 39.14274 1301 ft 126 kts 160°
2026-04-16 22:17 21.75396 39.14599 1134 ft 128 kts 159°
2026-04-16 22:17 21.74555 39.14931 979 ft 130 kts 159°
2026-04-16 22:17 21.73695 39.15271 811 ft 137 kts 161°
2026-04-16 22:18 21.72789 39.15628 647 ft 140 kts 161°
2026-04-16 22:18 21.71859 39.15995 464 ft 144 kts 161°
2026-04-16 22:18 21.70921 39.16370 267 ft 144 kts 162°
2026-04-16 22:18 21.69976 39.16744 99 ft 145 kts 163°
2026-04-16 22:19 21.69051 39.17110 56 ft 132 kts 161°
2026-04-16 22:19 21.68280 39.17405 48 ft 97 kts 160°
2026-04-16 22:19 21.67812 39.17590 52 ft 40 kts 160°
2026-04-16 22:19 21.67632 39.17648 54 ft 18 kts 179°
2026-04-16 22:20 21.67499 39.17627 54 ft 20 kts 189°
2026-04-16 22:20 21.67395 39.17605 54 ft 14 kts 193°
2026-04-16 22:20 21.67296 39.17577 54 ft 16 kts 198°
2026-04-16 22:20 21.67224 39.17521 53 ft 13 kts 242°
2026-04-16 22:21 21.67184 39.17422 53 ft 12 kts 239°
2026-04-16 22:21 21.67129 39.17352 52 ft 6 kts 230°
2026-04-16 22:21 21.67144 39.17319 51 ft 5 kts 317°
2026-04-16 22:21 21.67173 39.17296 51 ft 5 kts 325°
2026-04-16 22:22 21.67184 39.17288 51 ft 0 kts 325°